Location: Dziadowski
(50.3833°N, 20.0333°E)
Time: 19:47:03
(UTC+00:00)

GEOS 3 Rocket - Pass Details

Date: 18 January 2026
Orbit: 768 x 845 km, 115.0° (Epoch: 14 February)

Event Time Altitude Azimuth Distance (km) Brightness Sun altitude
Rises 03:15:04 0° 111° (ESE) 3,329 7.7 -30.7°
Reaches altitude 10° 03:17:26 10° 105° (ESE) 2,411 6.9 -30.4°
Maximum altitude 03:22:22 44° 35° (NE) 1,137 4.5 -29.6°
Enters shadow 03:23:13 41° 10° (N) 1,197 4.5 -29.4°
